Weather observations for the past three days for
West Plains, West Plains Municipal Airport
Metric (Imperial)
Date Time (cdt) Wind (kph) Vis. (km) Weather Sky Cond. Temperature (ºC) Relative Humidity Wind Chill (°C) Heat Index (°C) Pressure Precipitation (cm)
Air Dwpt 6 hour altimeter (cm) sea level (mb) 1 hr 3 hr 6 hr
Max. Min.
15 05:53 SW 6 16.09 Fair CLR 23.9 21.1 84% 24 76.3 1015.5
15 04:53 SW 9 16.09 Fair CLR 24.4 21.1 82% 25 76.25 1014.9
15 03:53 SW 7 16.09 Fair CLR 24.4 21.1 82% 25 76.25 1015.0
15 02:53 SW 7 16.09 Fair CLR 25 21.1 79% 26 76.25 1015.0
15 01:53 S 7 16.09 Fair CLR 25 20.6 77% 26 76.28 1015.3
15 00:53 SW 7 16.09 Fair CLR 25.6 20 30.6 25.6 71% 27 76.3 1015.4
14 23:53 SW 7 16.09 Fair CLR 26.1 20 69% 27 76.33 1015.8
14 22:53 S 11 16.09 Fair CLR 27.2 20 65% 29 76.33 1015.9
14 21:53 S 11 16.09 Fair CLR 27.8 20.6 65% 30 76.3 1015.6
14 20:53 S 7 16.09 Fair CLR 28.3 21.7 67% 31 76.33 1015.9
14 19:53 S 7 16.09 Fair CLR 30 21.7 61% 33 76.33 1016.0
14 18:53 S 7 16.09 Fair CLR 30.6 21.1 32.8 30.6 57% 33 76.35 1016.3
14 17:53 S 13 16.09 Fair CLR 31.7 21.1 53% 35 76.33 1015.9
14 16:53 S 13 16.09 Fair CLR 32.8 19.4 45% 35 76.35 1016.1
14 15:53 S 9 16.09 Fair CLR 32.2 20.6 50% 35 76.4 1016.8
14 14:53 S 13 16.09 Fair CLR 32.2 20 48% 34 76.43 1017.3
14 13:53 Calm 16.09 A Few Clouds FEW037 31.7 21.1 53% 35 76.48 1018.1
14 12:53 S 13 16.09 Fair CLR 31.7 21.1 31.7 23.9 53% 35 76.56 1018.9
14 11:53 SW 13 16.09 Fair CLR 30.6 21.7 59% 34 76.61 1019.5
14 10:53 SW 9 16.09 Fair CLR 29.4 21.7 63% 32 76.63 1020.0
14 09:53 SW 9 16.09 Fair CLR 28.9 22.2 67% 32 76.63 1020.2
14 08:53 SW 9 16.09 Fair CLR 27.2 22.2 74% 30 76.63 1020.1
14 07:53 SW 9 16.09 Fair CLR 25.6 21.7 79% 27 76.61 1019.7
14 06:53 Vrbl 7 16.09 Fair CLR 23.9 21.1 25.6 22.8 84% 24 76.56 1019.1
14 05:53 SW 6 16.09 Fair CLR 23.3 20.6 85% 76.53 1018.8
14 04:53 SW 7 16.09 Fair CLR 23.9 20.6 82% 24 76.53 1018.7
14 03:53 SW 9 16.09 Fair CLR 24.4 21.1 82% 25 76.53 1018.7
14 02:53 SW 6 16.09 Fair CLR 24.4 21.1 82% 25 76.56 1019.2
14 01:53 SW 7 16.09 Fair CLR 25 21.1 79% 26 76.58 1019.6
14 00:53 SW 7 16.09 Fair CLR 25.6 21.1 28.9 25 76% 27 76.63 1020.1
13 23:53 S 9 16.09 Fair CLR 26.1 21.1 74% 28 76.63 1020.2
13 22:53 S 7 16.09 Fair CLR 25.6 21.7 79% 27 76.63 1020.3
13 21:53 S 6 11.27 Fair CLR 25.6 22.2 82% 27 76.63 1020.1
13 20:53 Calm 16.09 Fair CLR 26.7 22.2 76% 29 76.61 1019.8
13 19:53 Calm 16.09 A Few Clouds FEW120 28.3 22.8 72% 32 76.61 1019.6
13 18:53 Calm 16.09 Overcast OVC120 28.3 22.2 30.6 26.7 70% 31 76.58 1019.5
13 17:53 S 7 16.09 Partly Cloudy SCT120 28.9 22.2 67% 32 76.58 1019.5
13 16:53 S 11 16.09 A Few Clouds FEW120 30 21.7 61% 33 76.61 1019.6
13 15:53 S 11 16.09 Fair CLR 29.4 21.7 63% 32 76.61 1020.0
13 14:53 SW 9 16.09 Fair CLR 28.9 21.1 63% 31 76.71 1021.1
13 13:53 S 7 16.09 Fair CLR 26.7 20 67% 28 76.78 1022.1
13 12:53 N 11 G 28 16.09 Fair CLR 26.7 20.6 28.3 22.8 69% 28 76.86 1023.3
13 11:53 Vrbl 7 16.09 A Few Clouds FEW110 27.8 21.1 67% 30 76.89 1023.5
13 10:53 SW 6 16.09 Mostly Cloudy SCT042 BKN100 27.8 21.1 67% 30 76.84 1023.0
13 09:53 SW 15 16.09 Mostly Cloudy BKN100 27.8 20.6 65% 30 76.84 1022.8
13 08:53 SW 7 16.09 Overcast OVC100 26.1 20.6 72% 28 76.84 1023.0
13 07:53 S 7 16.09 A Few Clouds FEW100 25.6 20.6 74% 27 76.76 1021.9
13 06:53 Calm 16.09 Fair CLR 22.8 20 23.9 21.7 84% 76.71 1021.0
13 05:53 Calm 16.09 Fair CLR 23.3 19.4 79% 76.68 1020.7
13 04:53 S 6 16.09 Fair CLR 22.2 19.4 84% 76.66 1020.4
13 03:53 Calm 8.05 Fog/Mist CLR 21.7 20 90% 76.63 1020.0
13 02:53 Calm 14.48 Fair CLR 22.8 21.1 90% 76.61 1019.8
13 01:53 Calm 16.09 Fair CLR 22.8 21.1 90% 76.63 1020.0
13 00:53 SE 6 16.09 Fair CLR 23.9 21.1 30 23.9 84% 24 76.63 1020.2
12 23:53 Calm 16.09 A Few Clouds FEW100 23.9 21.1 84% 24 76.63 1020.1
12 22:53 S 6 16.09 A Few Clouds FEW100 24.4 21.1 82% 25 76.63 1020.2
12 21:53 Calm 16.09 Mostly Cloudy BKN100 25 21.7 82% 26 76.58 1019.6
12 20:53 SE 7 16.09 A Few Clouds FEW095 26.7 22.2 76% 29 76.56 1019.0
12 19:53 Calm 16.09 A Few Clouds FEW095 28.3 22.2 70% 31 76.5 1018.6
12 18:53 S 7 16.09 A Few Clouds FEW095 29.4 20.6 30.6 26.7 59% 32 76.5 1018.3
12 17:53 SW 11 16.09 Fair CLR 30 21.1 59% 33 76.5 1018.4
12 16:53 SW 7 16.09 Fair CLR 30 21.1 59% 33 76.5 1018.4
12 15:53 S 13 16.09 A Few Clouds FEW034 30 21.1 59% 33 76.56 1018.9
12 14:53 S 13 16.09 A Few Clouds FEW039 29.4 20.6 59% 32 76.58 1019.4
12 13:53 S 13 16.09 Fair CLR 28.9 21.1 63% 31 76.61 1019.7
12 12:53 Vrbl 6 16.09 Fair CLR 26.7 20 27.2 22.8 67% 28 76.66 1020.5 0.03
12 11:53 N 7 16.09 Partly Cloudy FEW031 SCT120 26.1 19.4 67% 27 76.68 1020.8
12 10:53 E 9 G 30 11.27 Light Rain FEW019 BKN100 23.9 18.9 74% 25 76.58 1019.8 0.03
12 09:53 N 13 16.09 Mostly Cloudy FEW043 SCT060 BKN080 26.1 20 69% 27 76.63 1020.2
12 08:53 W 11 16.09 Overcast BKN048 BKN060 OVC095 24.4 20.6 79% 25 76.63 1020.2
12 07:53 SW 7 16.09 Partly Cloudy SCT100 23.9 20 79% 24 76.58 1019.4
12 06:53 SW 6 16.09 Mostly Cloudy BKN100 22.8 19.4 24.4 21.7 81% 76.53 1018.6
Date Time (cdt) Wind (kph) Vis. (km) Weather Sky Cond. Air Dwpt Max. Min. Relative Humidity Wind Chill (°C) Heat Index (°C) altimeter (cm) sea level (mb) 1 hr 3 hr 6 hr
6 hour
Temperature (ºC) Pressure Precipitation (cm)